Regional Weather Roundup
Issued by NWS

Home | Current Version | Previous Version | Graphics & Text | Print | Product List | Glossary On
Versions: 1 2 3 4 5 6 7 8 9 10 11 12 13 14 15 16 17 18 19 20 21 22 23 24 25 26 27 28 29 30 31 32 33 34 35 36 37 38 39 40 41 42 43 44 45 46 47 48 49 50
000
ASUS43 KLSX 020107
RWRMO

WEATHER SUMMARY FOR MISSOURI
NATIONAL WEATHER SERVICE SPRINGFIELD MO
700 PM CST SUN MAR 01 2015

NOTE: "FAIR" INDICATES FEW OR NO CLOUDS BELOW 12,000 FEET WITH NO
       SIGNIFICANT WEATHER AND/OR OBSTRUCTIONS TO VISIBILITY.
       CURRENT SKY AND/OR WEATHER CONDITIONS ARE NOT AVAILABLE FOR
       CHILLICOTHE AND FARMINGTON.

MOZ001>031-035>038-043-044-053-054-020200-
...NORTHERN AND WESTERN MISSOURI...

CITY           SKY/WX    TMP DP  RH WIND       PRES   REMARKS
KANSAS CTY INT MOCLDY    29  20  69 CALM      30.41R
KANSAS C DTWN  CLEAR     32  21  64 NW3       30.42R
LEE`S SUMMIT   CLEAR     29  20  69 N5        30.41R WCI  24
ST JOSEPH      MOCLDY    28  22  78 S6        30.42R WCI  22
CHILLICOTHE      N/A     29  21  72 CALM      30.42R
KIRKSVILLE     CLOUDY    26  19  74 SW3       30.39R

$$
MOZ066>068-077>081-088>096-101>105-020200-
...SOUTHWEST MISSOURI...

CITY           SKY/WX    TMP DP  RH WIND       PRES   REMARKS
SPRINGFIELD    CLOUDY    30  23  75 N7        30.37R WCI  23
JOPLIN         PTCLDY    29  22  75 NE3       30.41R

$$
MOZ032>034-039>042-045>050-055>058-069>072-020200-
...CENTRAL MISSOURI...

CITY           SKY/WX    TMP DP  RH WIND       PRES   REMARKS
COLUMBIA       PTCLDY    27  19  72 NW7       30.40R WCI  19
JEFFERSON CITY MOCLDY    28  20  71 NW5       30.43R WCI  23
ROLLA          CLOUDY    28  22  78 W5        30.37R WCI  23
SEDALIA        PTCLDY    25  18  74 NW3       30.42R
WARRENSBURG    PTCLDY    28  21  74 CALM      30.43R
OSAGE BEACH    PTCLDY    28  21  74 NW6       30.41R WCI  22

$$
MOZ051-052-059>065-020200-
...EAST CENTRAL MISSOURI...

CITY           SKY/WX    TMP DP  RH WIND       PRES   REMARKS
ST LOUIS INTL  MOCLDY    30  22  72 NW6       30.40R WCI  24
SPIRIT OF STL  MOCLDY    29  21  72 W5        30.40R WCI  24
ST CHARLES     MOCLDY    30  22  72 NW6       30.40R WCI  24

$$
MOZ072>076-082>087-097>100-106>115-020200-
...SOUTH CENTRAL AND SOUTHEAST MISSOURI...

CITY           SKY/WX    TMP DP  RH WIND       PRES   REMARKS
CAPE GIRARDEAU CLOUDY    35  31  85 N8        30.38R WCI  29
FARMINGTON     CLOUDY    30  25  80 N6        30.40R WCI  24
POPLAR BLUFF   LGT RAIN  37  31  78 NW5       30.37R
WEST PLAINS    CLOUDY    33  28  81 N6        30.36R WCI  28

$$



USA.gov is the U.S. government's official web portal to all federal, state and local government web resources and services.